Tracking 28514 objects as of 23-Feb-2024
HD Live streaming from Space Station
objects crossing your sky now

STARLINK-5620

Track STARLINK-5620 now!
10-day predictions
STARLINK-5620 is classified as:


NORAD ID: 55414
Int'l Code: 2023-014Z
Perigee: 577.1 km
Apogee: 581.3 km
Inclination: 70.0 °
Period: 96.1 minutes
Semi major axis: 6950 km
RCS: Unknown
Launch date: January 31, 2023
Source: United States (US)
Launch site: AIR FORCE WESTERN TEST RANGE (AFWTR)
Your satellite tracking list
Your tracking list is empty




NASA's NSSDC Master Catalog

Two Line Element Set (TLE):
1 55414U 23014Z   24054.57637103  .00000375  00000-0  39189-4 0  9995
2 55414  70.0006 163.0632 0002994 269.9950  90.0865 14.98331273 59956
Source of the keplerian elements: AFSPC